4285 Weather Reports


Display with metric or nautical units.
time (UTC)temp
F
wind
direction
speed
MPH
gust
MPH
rain 1hr
in
rain 24hr
in
rain mn
in
humidity
%
barometer
mb
20260502123004 37 335 0.0 3.0 0.00 0.03 0.00 80 1017.4
20260502114658 35 276 0.0 3.0 0.00 0.03 0.00 88 1017.1
20260502111504 32 63 0.0 0.0 0.00 0.03 0.00 91 1016.9
20260502110006 32 63 0.0 0.0 0.00 0.03 0.00 90 1016.8
20260502104507 32 63 0.0 0.0 0.00 0.03 0.00 90 1016.7
20260502071507 36 63 0.0 0.0 0.00 0.03 0.00 80 1016.2
20260502060014 37 94 0.0 0.0 0.00 0.03 0.00 80 1016.6
20260502050013 37 92 0.0 0.0 0.00 0.03 0.00 76 1016.5
20260502043006 38 72 0.0 2.0 0.00 0.03 0.00 75 1016.1
20260502030018 42 321 0.0 6.0 0.00 0.03 0.03 61 1015.4
20260502011516 43 331 1.0 5.0 0.00 0.03 0.03 61 1014.8
20260502004514 43 293 2.0 7.0 0.00 0.03 0.03 60 1014.7
20260501234648 43 325 2.0 8.0 0.00 0.03 0.03 61 1014.3
20260501231656 44 338 1.0 8.0 0.00 0.03 0.03 61 1014.1
20260501230142 45 24 2.0 4.0 0.00 0.03 0.03 64 1014.2
20260501191508 49 214 0.0 5.0 0.00 0.03 0.03 53 1012.8
20260501190158 48 326 0.0 4.0 0.00 0.03 0.03 51 1012.9
20260501184655 48 69 1.0 7.0 0.00 0.03 0.03 52 1012.7
20260501173003 47 50 1.0 3.0 0.00 0.03 0.03 53 1012.5
20260501171520 47 304 0.0 6.0 0.00 0.03 0.03 59 1012.6
20260501164511 47 51 1.0 4.0 0.00 0.03 0.03 58 1012.6
20260501161649 47 62 0.0 4.0 0.00 0.03 0.03 59 1012.5
20260501160201 47 65 0.0 6.0 0.00 0.03 0.03 64 1012.5